#timestamp,LO_Frequency,Hit,StdDev 
1505671215.8,286046995.7,N
1505671235.7,286046996.3,N
1505671255.5,286046995.5,N
1505671275.3,286046995.1,N
1505671295.2,286046994.6,N
1505671315.9,286046995.1,N
1505671335.7,286046995.8,N
1505671355.6,286046997.1,N
1505671375.4,286046997.6,N
1505671395.2,286046995.4,N
1505671415.1,286046990.5,Y
1505671416.0,286046990.5,P
1505671435.8,286046997.6,N
1505671455.6,286047001.5,N
1505671475.5,286047003.5,N
1505671495.3,286047004.7,N
1505671515.1,286047011.8,N
1505671535.8,286047012.1,N
1505671555.7,286047013.0,N
1505671575.5,286047013.0,N
1505671595.3,286047015.3,N
1505671615.2,286047017.5,N
1505671635.9,286047018.2,N
1505671655.7,286047017.8,N
1505671675.6,286047023.5,N
1505671695.4,286047023.0,N
1505671715.2,286047026.2,N
1505671735.1,286047027.0,N
1505671736.0,286047027.0,N
1505671755.8,286047024.1,N
1505671775.6,286047025.7,N
1505671795.5,286047026.1,N
1505671815.3,286047029.1,N
1505671835.1,286047027.0,N
1505671855.8,286047029.3,N
1505671875.7,286047028.8,N
1505671895.5,286047030.7,N
1505671915.3,286047030.1,N
1505671935.2,286047034.7,Y
1505671955.0,286047017.2,P
1505671955.9,286047017.2,P
1505671975.7,286047016.3,P
1505671995.6,286047014.5,Y
1505672015.4,286046995.8,P
1505672035.2,286046996.4,N
1505672055.1,286046993.8,N
1505672056.0,286046993.8,N
1505672075.8,286046999.0,N
1505672095.6,286047000.0,N
1505672115.5,286046999.1,N
1505672135.3,286046999.8,N
1505672155.1,286046998.2,N
1505672175.9,286047002.4,N
1505672195.7,286047005.9,N
1505672215.5,286047004.2,N
1505672235.4,286046999.3,N
1505672255.2,286046996.6,N
1505672275.0,286046995.4,N
1505672275.9,286046995.4,N
1505672295.8,286046993.8,N
1505672315.6,286046993.9,N
1505672335.4,286046994.3,N
1505672355.3,286046992.9,N
1505672375.1,286046990.8,N
1505672376.0,286046990.8,N
1505672395.8,286046991.2,N
1505672415.6,286046989.7,N
1505672435.5,286046989.1,N
1505672455.3,286046989.4,N
1505672475.1,286046988.0,N
1505672495.9,286046986.0,N
1505672515.7,286046986.0,N
1505672535.5,286046983.7,N
1505672555.4,286046982.9,Y
1505672575.2,286046986.5,P
1505672595.0,286046986.6,P
1505672595.9,286046986.6,P
1505672615.8,286046984.0,Y
1505672635.6,286046993.7,P
1505672655.4,286046996.4,N
1505672675.3,286046993.3,N
1505672695.1,286046993.7,N
1505672715.8,286046994.2,N
1505672735.7,286046994.4,N
1505672755.5,286046990.7,Y
1505672775.3,286046996.5,P
1505672795.2,286046999.6,N
1505672815.9,286046998.7,N
1505672835.7,286046998.1,N
1505672855.6,286046996.7,N
1505672875.4,286046997.5,N
1505672895.2,286046995.8,N
1505672915.0,286046995.8,N
1505672916.0,286046995.8,N
1505672935.8,286046995.8,N
1505672955.6,286046994.1,Y
1505672975.5,286046997.8,P
1505672995.3,286046994.9,P
1505673015.1,286046998.0,N
1505673035.9,286046994.9,Y
1505673055.7,286046996.9,P
1505673075.5,286046998.5,P
1505673095.3,286047000.1,N
1505673115.2,286047000.9,N
1505673135.0,286047000.8,N
1505673135.9,286047000.8,N
1505673155.7,286047001.2,N
1505673175.6,286046999.4,N
1505673195.4,286046998.0,N
1505673215.2,286046995.0,Y
1505673235.1,286046994.9,P
1505673236.0,286046994.9,N
1505673255.8,286046995.4,N
1505673275.6,286046997.5,N
1505673295.5,286046997.9,N
1505673315.3,286046997.2,N
1505673335.1,286046999.1,N
1505673355.9,286046997.5,N
1505673375.7,286046997.6,N
1505673395.5,286046997.2,N
1505673415.4,286046998.4,N
1505673435.2,286046999.7,N
1505673455.0,286047000.9,N
1505673455.9,286047000.9,N
1505673475.8,286047003.4,N
1505673495.6,286047004.9,N
1505673515.4,286047006.3,N
1505673535.3,286047013.4,Y
1505673555.1,286047013.3,P
1505673556.0,286047013.3,N
1505673575.8,286047019.2,N
1505673595.7,286047022.8,Y
1505673615.5,286047014.0,P
1505673635.3,286047013.0,P
1505673655.2,286047014.7,P
1505673675.9,286047018.3,Y
1505673695.7,286047003.2,P
1505673715.6,286047003.6,N
1505673735.4,286047005.9,N
1505673755.2,286047002.4,N
1505673775.1,286047003.0,N
1505673776.0,286047003.0,N
1505673795.8,286047004.4,N
1505673815.6,286047004.9,N
1505673835.4,286047002.4,N
1505673855.3,286047002.5,N
1505673875.1,286047005.8,N
1505673895.9,286047010.2,Y
1505673915.7,286047004.8,P
1505673935.5,286047001.9,P
1505673955.3,286047002.4,N
1505673975.2,286047000.5,N
1505673995.9,286047001.7,N
1505674015.7,286047006.7,Y
1505674035.6,286047005.6,P
1505674055.4,286047001.8,N
1505674075.2,286047004.3,N
1505674095.1,286047001.7,N
1505674096.0,286047001.7,N
1505674115.8,286047003.0,N
1505674135.6,286047003.5,N
1505674155.5,286047003.9,N
1505674175.3,286047005.5,Y
1505674195.1,286047002.3,P
1505674215.9,286047001.9,P
1505674235.7,286047003.9,P
1505674255.5,286046999.9,N
1505674275.4,286046999.4,N
1505674295.2,286046993.3,Y
1505674315.0,286046993.2,P
1505674315.9,286046993.2,N
1505674335.8,286046990.2,N
1505674355.6,286046990.6,N
1505674375.4,286046988.9,N
1505674395.3,286046987.5,N
1505674415.1,286046985.3,Y
1505674435.8,286046996.2,P
1505674455.7,286046993.5,P
1505674475.5,286046990.7,P
1505674495.3,286046988.5,Y
1505674515.2,286046997.4,P
1505674535.9,286046999.6,N
1505674555.7,286046997.5,N
1505674575.6,286046994.9,N
1505674595.4,286046996.0,N
1505674615.2,286046996.3,N
1505674635.1,286046996.3,N
1505674636.0,286046996.3,N
1505674655.8,286046995.4,N
1505674675.6,286046993.9,Y
1505674695.5,286046995.6,P
1505674715.3,286046997.2,P
1505674735.1,286046997.8,P
1505674755.9,286046996.0,Y
1505674775.7,286046998.4,P
1505674795.5,286046998.7,N
